User: anonymous   Login
Location: Waning Moon II Observatory
(30.3730°N, 89.7620°W)
Time: 01:51:01
(UTC-05:00)
Language:

Cosmos 1825 Rocket - Orbit

View from above orbital plane
View from above orbital plane
View from above satellite
View from above satellite

Ground track
Ground track

The orbit data is extracted from the following two-line orbital elements,

1 17567U 87024B   15240.10739205  .00000188  00000-0  19970-4 0  9993
2 17567 082.5274 095.8166 0019380 004.8638 355.2762 14.83474240538745
Epoch (UTC): 28 August 2015 02:34:38
Eccentricity: 0.0019380
inclination: 82.5274°
perigee height: 605 km
apogee height: 632 km
right ascension of ascending node: 95.8166°
argument of perigee: 4.8638°
revolutions per day: 14.83474240
mean anomaly at epoch: 355.2762°
orbit number at epoch: 53874

The dashed part of the orbit path shows where the satellite is in the earth's shadow,  

DLR